This demonstration page uses our WeatherBlox Daily Observations layout. Learn more.

Left ArrowRight Arrow

39.92423, -83.80882

Hourly Observations for June 19, 2018

Temp ( °F °C ) Dew Point ( °F °C ) Humidity (%) Winds ( mph kmh ) Pressure ( in mb ) Visibility ( mi km ) Precip ( " mm )
12:56 am 00:56 Clear 80 26.7 72 22.2 76 76 WSW 12 19 29.97 1015 10 16 N/A
1:56 am 01:56 Clear 79 26.1 72 22.2 79 79 W 13 20 29.97 1015 10 16 N/A
2:56 am 02:56 Clear 78 25.6 72 22.2 82 82 W 8 13 29.96 1015 10 16 N/A
3:56 am 03:56 Clear 77 25 72 22.2 85 85 W 8 13 29.95 1014 10 16 N/A
4:56 am 04:56 Clear 76 24.4 72 22.2 88 88 WNW 6 9 29.97 1015 10 16 N/A
5:56 am 05:56 Clear 75 23.9 73 22.8 94 94 W 6 9 29.98 1015 10 16 N/A
6:56 am 06:56 Sunny 74 23.3 73 22.8 97 97 WSW 5 7 29.98 1015 10 16 N/A
7:56 am 07:56 Sunny 78 25.6 74 23.3 87 87 WSW 6 9 29.98 1015 10 16 N/A
8:56 am 08:56 Sunny 81 27.2 74 23.3 79 79 W 10 17 29.98 1015 10 16 N/A
9:56 am 09:56 Sunny 83 28.3 74 23.3 74 74 W 8 13 29.97 1015 10 16 N/A
10:56 am 10:56 Sunny 84 28.9 74 23.3 72 72 WNW 8 13 29.96 1015 10 16 N/A
11:56 am 11:56 Sunny 87 30.6 75 23.9 67 67 W 6 9 29.96 1015 10 16 N/A
12:38 pm 12:38 Partly Cloudy with Heavy Thunderstorms 75 24 72 22 89 89 VRB 3 6 29.94 1014 3 5 0.15 3.81
12:56 pm 12:56 Partly Cloudy with Nearby Thunderstorms 76 24.4 73 22.8 91 91 W 8 13 29.97 1015 10 16 0.16 4.06
1:08 pm 13:08 Partly Cloudy with Heavy Thunderstorms 73 23 70 21 89 89 SSW 12 19 29.94 1014 2 3 0.43 10.92
1:13 pm 13:13 Partly Cloudy with Heavy Thunderstorms 72 22 70 21 94 94 SSE 8 13 29.94 1014 3 5 0.46 11.68
1:56 pm 13:56 Partly Cloudy with Nearby Thunderstorms 76 24.4 72 22.2 88 88 SSE 6 9 29.92 1013 10 16 0.55 13.97
2:40 pm 14:40 Partly Cloudy with Heavy Thunderstorms 72 22 70 21 94 94 SSW 17 28 29.97 1015 2 3 0.29 7.37
2:49 pm 14:49 Partly Cloudy with Thunderstorms 70 21 70 21 100 100 SSW 8 13 29.97 1015 3 5 0.38 9.65
2:56 pm 14:56 Partly Cloudy with Heavy Thunderstorms 70 21.1 69 20.6 97 97 S 13 20 29.97 1015 3 5 0.55 13.97
3:33 pm 15:33 Partly Cloudy with Light Rain 75 24 73 23 94 94 NNW 5 7 29.91 1013 10 16 0.13 3.30
3:56 pm 15:56 Sunny 75 23.9 72 22.2 90 90 W 7 11 29.93 1014 10 16 0.13 3.30
4:56 pm 16:56 Sunny 76 24.4 72 22.2 88 88 SE 6 9 29.92 1013 10 16 N/A
5:56 pm 17:56 Sunny 80 26.7 73 22.8 79 79 N N/A 29.92 1013 10 16 0.01 0.25
6:56 pm 18:56 Sunny 78 25.6 72 22.2 82 82 NNW 8 13 29.92 1013 10 16 N/A
7:56 pm 19:56 Partly Cloudy with Rain 76 24.4 72 22.2 88 88 N N/A 29.93 1014 10 16 N/A
8:56 pm 20:56 Sunny 74 23.3 73 22.8 97 97 N N/A 29.92 1013 10 16 0.01 0.25
9:56 pm 21:56 Clear 72 22.2 72 22.2 100 100 SE 8 13 29.91 1013 9 14 N/A
10:56 pm 22:56 Clear 72 22.2 72 22.2 100 100 WSW 5 7 29.92 1013 10 16 N/A
11:56 pm 23:56 Clear 71 21.7 71 21.7 100 100 SSW 6 9 29.91 1013 10 16 N/A

Powered by AerisWeather